SCP
0 0 0 0 1 1 1 0 0 0 0 1 1 1 1 1 1 0 0 0 0 0 0 0 1 1 1 1 1 1 1 1 1 1 1 1 1 1
0 0 0 0 1 1 0 0 0 0 0 1 1 1 1 1 1 0 0 0 0 0 0 0 1 1 1 1 1 1 1 1 1 1 1 1 1 1
0 0 0 0 0 0 0 0 0 0 0 0 1 1 1 1 1 1 1 0 0 0 0 0 0 0 0 1 1 0 0 0 1 1 1 1 1 1
1 0 0 0 0 0 0 0 0 0 0 0 1 1 1 1 1 1 1 1 0 0 0 0 0 0 0 0 0 0 0 0 0 0 0 0 1 1
1 0 0 0 0 0 0 0 0 0 0 0 1 1 1 1 1 1 1 1 0 0 0 0 0 0 0 0 0 0 0 0 0 0 0 0 0 1
0 0 0 0 0 0 0 0 0 0 0 0 1 1 1 1 1 1 1 0 0 0 0 0 0 0 0 0 0 0 0 0 0 0 0 0 0 0
0 0 0 0 0 0 0 0 1 1 1 1 1 1 1 1 1 1 0 0 0 0 0 0 0 1 0 0 0 0 0 0 0 0 0 0 0 0
0 0 0 0 0 1 1 1 1 1 1 1 1 1 1 1 0 0 0 0 0 1 1 1 1 1 1 0 0 0 0 0 0 0 0 0 0 0
0 0 0 0 0 0 1 1 1 1 1 1 1 1 1 1 0 0 0 0 0 1 1 1 1 1 1 1 0 0 0 0 0 0 0 0 0 0
0 0 0 0 0 0 0 1 1 1 1 1 1 1 1 1 1 0 0 0 0 0 0 1 1 1 1 1 1 0 0 0 0 0 0 0 0 0
0 0 0 0 0 0 0 0 0 1 1 1 0 0 1 1 1 1 0 0 0 0 0 1 1 1 1 1 1 0 0 0 0 0 0 0 0 0
0 0 0 0 0 0 0 0 0 0 0 0 0 0 0 1 1 1 1 1 0 0 0 1 1 1 1 1 1 1 0 0 0 0 0 0 0 0
0 0 0 0 0 0 0 0 1 1 0 0 0 0 0 0 1 1 1 1 0 0 0 1 1 1 1 1 1 1 0 0 0 0 0 0 0 0
0 0 0 0 0 0 0 0 0 0 0 0 0 0 0 1 1 1 1 1 0 0 0 1 1 1 0 0 1 1 1 0 0 1 1 0 0 0
0 0 0 0 0 0 0 0 0 0 0 0 0 0 1 1 1 1 1 1 0 0 0 0 0 0 0 0 0 1 1 1 1 1 1 1 1 0
0 0 0 0 0 0 0 0 0 0 0 0 0 0 0 0 0 0 0 0 0 0 0 0 0 0 0 0 0 0 0 1 0 1 1 1 1 1
0 0 0 0 0 0 0 0 0 0 0 1 1 1 0 0 0 0 0 0 0 0 0 0 0 0 0 0 0 0 0 0 0 0 1 1 1 1
0 0 0 0 0 0 0 0 0 0 1 1 1 1 1 0 0 0 0 0 0 0 0 0 0 0 0 0 0 0 0 0 0 0 0 1 1 1
0 0 0 0 0 0 0 0 0 0 1 1 1 1 1 0 0 0 0 0 0 0 0 0 0 0 0 0 0 0 0 0 0 0 0 0 0 0
0 0 0 0 0 1 1 0 0 0 1 1 1 1 1 0 0 0 0 0 0 0 0 0 0 0 0 0 0 0 0 0 0 0 0 0 0 0
0 0 0 0 0 1 1 1 0 0 0 1 1 1 1 0 0 0 0 0 0 0 0 0 0 0 0 0 0 0 0 0 0 0 0 0 0 0
0 0 0 0 0 1 1 1 1 0 0 1 1 1 1 0 0 0 0 0 0 0 0 0 0 0 0 0 0 0 0 0 0 0 0 0 0 0
1 1 0 0 0 0 1 1 1 0 0 0 1 1 1 1 0 0 0 0 0 0 0 0 0 0 0 0 0 0 0 0 0 0 0 0 0 0
Wind_Speed
2 1 1 1 1 1 1 0 1 1 1 1 0 1 1 2 3 3 3 5 6 6 5 5 5 4 5 5 5 5 5 5 6 6 7 8 8 8
1 1 1 1 1 1 1 1 0 1 1 1 1 1 1 2 3 2 3 6 6 6 5 5 5 5 5 5 5 4 4 4 4 5 5 5 5 6
2 2 2 1 1 1 1 1 1 1 1 1 0 1 1 1 1 1 3 3 3 6 6 6 6 5 5 5 5 4 4 4 4 5 4 4 4 4
3 2 2 2 2 2 1 2 1 1 2 2 1 0 1 2 2 1 2 3 3 6 7 7 6 5 5 5 5 5 4 4 4 4 4 4 4 4
3 3 3 2 2 2 3 2 2 2 2 2 1 1 1 1 1 0 1 1 3 5 7 6 6 6 6 6 5 5 4 4 4 4 3 3 3 3
3 3 3 2 2 2 2 3 2 2 2 2 1 1 1 1 2 1 1 1 1 2 3 5 6 7 6 6 6 5 5 4 4 4 3 3 2 3
4 3 3 4 3 3 2 1 1 1 2 2 2 1 1 1 2 2 2 1 1 2 2 2 3 3 4 5 5 6 6 5 4 4 3 3 3 3
5 4 5 5 6 6 5 4 3 3 3 2 2 3 3 3 2 2 2 2 1 1 2 2 3 3 3 3 6 7 6 5 5 4 4 3 3 3
6 5 5 4 6 5 6 7 6 6 5 4 3 3 3 3 3 3 2 2 2 2 2 1 1 2 2 4 7 8 7 6 5 4 3 3 2 3
6 6 5 4 4 4 4 4 5 5 6 5 4 3 3 3 3 3 3 2 1 1 2 2 1 1 2 2 6 7 7 7 6 5 4 3 3 3
6 6 5 4 5 5 4 4 4 4 6 7 7 6 4 3 3 2 2 2 2 1 1 2 1 1 1 2 4 7 7 6 6 6 5 4 3 3
4 4 6 6 6 5 4 4 5 4 4 5 5 5 5 4 4 3 3 3 2 2 2 2 2 2 1 1 2 3 3 4 5 5 4 4 3 2
4 4 3 6 6 7 6 5 6 4 4 5 5 4 4 3 3 3 3 3 3 2 2 3 2 2 2 1 1 2 2 2 2 2 3 3 3 3
5 4 3 6 6 7 6 6 7 5 3 3 4 4 4 4 3 4 3 3 3 3 3 3 2 2 2 1 1 0 1 1 2 2 2 2 2 2
5 6 7 7 6 6 8 9 7 4 4 4 4 4 4 5 4 3 3 3 3 2 3 3 3 2 2 2 1 1 1 1 1 2 1 2 2 2
6 7 8 8 6 7 7 6 5 5 5 5 4 4 3 4 4 4 3 3 3 1 1 3 4 4 2 2 2 2 1 2 1 1 1 1 1 1
6 5 4 3 4 4 5 5 5 5 6 4 4 4 4 4 4 3 4 3 3 3 2 1 2 3 3 3 2 2 2 1 2 1 1 1 1 2
7 5 6 6 6 6 6 6 6 7 7 6 5 5 5 5 4 4 4 4 4 3 3 3 2 2 1 1 1 2 1 1 1 1 1 1 2 1
7 7 7 7 7 7 6 6 7 7 7 7 6 6 5 5 5 5 4 4 3 4 4 4 3 3 3 2 2 0 2 1 0 0 1 1 2 2
6 7 7 7 6 6 6 6 6 6 6 7 7 7 7 6 6 6 5 5 4 4 3 3 3 4 4 4 2 1 1 1 1 1 1 1 1 1
7 7 7 7 6 6 6 6 6 6 7 7 7 8 7 7 6 6 6 7 5 4 5 4 4 6 3 3 2 0 1 1 2 2 1 0 1 2
7 7 7 7 6 6 6 6 6 6 7 7 7 7 7 7 7 8 7 7 5 4 4 4 4 4 3 3 2 2 1 1 1 1 1 2 2 2
7 7 7 7 6 6 6 7 7 7 7 6 7 7 7 7 7 7 7 7 6 6 5 4 3 2 2 3 2 1 1 1 0 1 2 4 6 7
Wind_Direction
297 298 275 261 264 288 310 167 160 235 263 234 179 172 128 132 156 169 160 172 175 174 175 175 173 179 190 189 185 189 193 196 200 204 209 218 221 218
242 265 287 290 292 261 269 278 192 185 238 248 211 167 151 152 159 177 160 165 176 175 176 174 171 172 174 176 178 180 187 191 191 195 207 218 219 218
269 240 238 239 274 275 262 249 241 185 219 269 248 156 148 136 146 191 162 167 176 182 180 175 170 167 165 167 170 176 188 196 195 191 197 201 206 208
261 268 263 239 230 233 243 251 229 212 188 217 251 164 158 168 168 198 183 168 163 172 172 170 167 163 164 166 167 167 173 182 185 180 182 188 192 193
240 242 254 253 248 230 221 233 226 214 183 186 217 196 210 181 150 202 161 148 168 160 163 166 166 165 166 167 164 162 161 164 169 169 172 179 188 198
243 229 234 234 244 253 237 235 223 208 192 191 204 207 198 193 153 169 175 206 184 158 154 162 168 171 171 169 166 166 165 164 165 164 168 174 184 200
257 233 214 206 211 224 229 236 235 207 196 193 206 203 198 172 181 185 178 188 187 157 150 172 165 168 177 177 174 172 171 172 172 171 174 184 196 204
272 250 224 214 217 218 213 203 195 205 205 205 204 201 201 189 182 176 175 165 205 206 167 205 171 168 167 160 170 169 169 170 175 179 180 187 202 215
279 270 259 228 213 215 218 218 222 222 212 202 200 205 196 188 176 181 190 184 199 200 142 209 172 155 151 150 160 165 168 169 170 173 177 187 212 234
275 273 261 241 230 220 218 217 215 222 218 207 199 201 187 181 179 187 191 178 173 208 145 176 192 152 135 142 161 161 168 173 177 181 187 200 222 243
269 274 272 254 240 233 228 224 216 215 207 187 181 179 166 164 156 142 160 158 195 225 173 157 173 139 154 174 177 171 170 175 183 188 192 202 221 244
274 264 262 258 253 234 233 228 224 218 198 192 190 191 190 186 175 167 170 172 177 200 201 154 161 130 145 186 162 171 178 186 184 188 195 206 213 211
285 273 259 252 254 251 239 231 230 216 202 192 184 185 183 179 181 184 173 167 174 193 181 140 147 141 147 172 173 178 167 165 173 190 195 193 192 189
286 282 268 257 256 260 253 236 229 219 204 197 187 188 187 187 183 179 172 165 161 166 160 136 140 147 138 148 217 189 149 163 160 172 185 187 183 192
284 287 275 266 257 252 246 235 221 214 203 202 197 196 191 183 173 172 171 152 132 131 135 127 134 140 138 162 185 186 188 232 169 147 158 179 197 195
283 283 277 258 246 244 243 234 222 208 200 203 195 189 177 171 173 170 168 160 145 154 135 134 139 141 153 178 178 206 192 192 194 176 177 207 213 203
283 283 268 252 244 246 238 223 217 210 207 202 193 186 181 178 179 170 161 158 162 169 166 144 130 134 150 161 179 207 203 207 201 192 167 234 258 238
272 265 254 242 236 233 234 230 223 214 204 198 194 187 183 179 175 168 162 163 168 170 167 161 141 109 59 343 206 186 189 194 209 170 147 210 265 266
262 259 252 244 239 232 229 228 227 223 205 194 191 187 180 175 172 170 169 169 172 171 169 160 152 148 165 212 272 184 152 165 140 209 212 209 244 253
248 254 256 249 244 238 232 231 225 221 213 197 188 185 180 176 176 173 172 173 172 167 161 158 164 166 176 183 185 245 256 169 170 207 245 268 277 279
256 253 254 256 251 242 235 231 227 220 216 200 190 184 180 175 177 175 172 175 170 165 169 179 177 154 133 107 106 192 267 236 171 177 196 264 309 299
261 256 253 253 255 248 239 229 229 223 213 206 192 184 180 177 177 175 173 172 172 167 162 155 149 137 131 154 177 192 209 283 294 297 256 198 192 222
261 258 254 252 251 247 240 232 230 227 209 200 192 184 178 175 173 171 170 167 162 156 147 144 147 146 153 161 166 170 171 184 222 348 312 273 238 236